[[{"header":{"parameterUnit":"m.s-1","parameterCategory":1,"la1":30.2991,"la2":30.254,"lo1":-89.0895,"lo2":-89.0444,"dy":0.0017,"dx":0.0017,"nx":28,"ny":28,"refTime":"2024-07-19T03:00:00:Z","depth":0,"parameterNumber":2,"parameterNumberName":"U-component_of_WINDS"},"data":[0,0,0,0,0,0,0,0,0,0,0,0,0,0,0,0,0,0,0,0,0,0,0,0,0,0,0,0,0,0,0,0,0,0,0,0,0,0,0,0,0,0,0,0,0,0,0,0,0,0,0,0,0,0,0,0,0,0,-0.4637,-0.4637,0,-0.4619,-0.4619,-0.4619,-0.4621,-0.4621,-0.4621,-0.4622,-0.4601,-0.4601,-0.46,0,0,0,0,0,0,0,0,0,0,0,0,0,-0.4673,-0.4672,-0.4637,-0.4637,-0.4637,-0.4619,-0.4619,-0.4619,-0.4621,-0.4621,-0.4621,-0.4622,-0.4602,-0.4601,-0.46,0,0,0,0,0,0,0,0,0,0,0,0,0,-0.4656,-0.4672,-0.4637,-0.4636,-0.4635,-0.4619,-0.4619,-0.4619,-0.4621,-0.4621,-0.4621,-0.4622,-0.4602,-0.4601,-0.46,-0.4584,0,0,-0.4596,-0.4595,0,0,0,0,0,0,0,0,-0.4657,-0.4655,-0.4636,-0.4636,-0.4635,-0.4623,-0.4624,-0.4607,-0.462,-0.4626,-0.4622,-0.4622,-0.4608,-0.4606,-0.4602,-0.4583,-0.4582,-0.4596,-0.4595,-0.4595,-0.4594,0,0,0,0,0,0,0,-0.4658,-0.4656,-0.463,-0.4636,-0.4635,-0.4636,-0.4634,-0.4621,-0.4615,-0.4626,-0.4626,-0.4624,-0.4608,-0.4603,-0.4602,-0.4581,-0.4596,-0.4595,-0.4594,-0.4594,-0.4549,-0.4548,0,0,0,0,0,0,-0.466,-0.4657,-0.4631,-0.463,-0.4648,-0.4635,-0.4633,-0.4626,-0.4615,-0.4614,-0.4623,-0.4624,-0.4605,-0.4603,-0.4601,-0.4581,-0.4595,-0.4593,-0.4593,-0.4549,-0.4549,-0.4548,0,0,0,0,0,0,-0.4661,-0.4658,-0.4631,-0.4643,-0.464,-0.4634,-0.4627,-0.4626,-0.4621,-0.4613,-0.4612,-0.462,-0.4605,-0.4603,-0.4588,-0.4581,-0.4593,-0.4592,-0.455,-0.4549,-0.4548,-0.4543,0,0,0,0,0,0,-0.4662,-0.4658,-0.4652,-0.4643,-0.4639,-0.4619,-0.4626,-0.4625,-0.4619,-0.462,-0.4609,-0.4608,-0.4605,-0.459,-0.4587,-0.4579,-0.4591,-0.455,-0.4549,-0.4549,-0.4543,-0.4542,-0.454,0,0,0,0,0,-0.4663,-0.465,-0.4651,-0.4648,-0.4632,-0.4619,-0.4617,-0.4614,-0.4619,-0.4612,-0.4608,-0.4608,-0.4582,-0.4588,-0.4585,-0.4577,-0.4551,-0.455,-0.4549,-0.4544,-0.4542,-0.454,0,0,0,0,0,0,-0.4657,-0.4649,-0.465,-0.4634,-0.4627,-0.4619,-0.4611,-0.4612,-0.4603,-0.4604,-0.4601,-0.4598,-0.4584,-0.4579,-0.4586,-0.4561,-0.4567,-0.4565,-0.4565,-0.4563,-0.4561,-0.4562,-0.459,0,0,0,0,0,-0.4655,-0.4645,-0.4638,-0.4625,-0.4622,-0.4617,-0.4611,-0.461,-0.4603,-0.4599,-0.4594,-0.4586,-0.4576,-0.4569,-0.456,-0.4543,-0.4541,-0.4536,-0.4535,-0.4533,-0.4531,-0.4523,-0.452,-0.4545,-0.4545,-0.4545,0,0,-0.4648,-0.4643,-0.4637,-0.4624,-0.4618,-0.4609,-0.4614,-0.4604,-0.4596,-0.4598,-0.4584,-0.4579,-0.457,-0.4555,-0.4548,-0.4551,-0.4525,-0.4532,-0.4531,-0.453,-0.4521,-0.4519,-0.4517,-0.4544,-0.4544,-0.4544,0,0,-0.4631,-0.4626,-0.4615,-0.4609,-0.4601,-0.4599,-0.4596,-0.4588,-0.4585,-0.4572,-0.4572,-0.4564,-0.4547,-0.454,-0.4535,-0.4517,-0.4518,-0.4514,-0.4506,-0.4498,-0.4496,-0.4494,-0.4487,-0.4485,-0.4513,-0.4513,-0.4513,0,-0.4624,-0.461,-0.4609,-0.4598,-0.4592,-0.4594,-0.4583,-0.4578,-0.4566,-0.4562,-0.4566,-0.4545,-0.4539,-0.4523,-0.4519,-0.4514,-0.4511,-0.4515,-0.4496,-0.4494,-0.4493,-0.4486,-0.4484,-0.4512,-0.4512,-0.4513,-0.4513,0,-0.4601,-0.4591,-0.4583,-0.4573,-0.4567,-0.4556,-0.4553,-0.4547,-0.4547,-0.4544,-0.453,-0.4523,-0.4513,-0.4509,-0.4508,-0.4492,-0.4494,-0.4497,-0.4503,-0.449,-0.4484,-0.4482,-0.4512,-0.4512,-0.4512,-0.4512,0,0,-0.4579,-0.457,-0.4567,-0.4562,-0.4554,-0.4546,-0.4536,-0.4526,-0.4521,-0.4514,-0.4504,-0.4491,-0.4494,-0.4487,-0.4486,-0.4479,-0.4465,-0.4483,-0.4482,-0.4479,-0.4447,-0.4445,-0.4442,-0.4466,-0.4466,-0.4466,-0.4448,0,-0.4561,-0.4542,-0.4542,-0.4524,-0.4515,-0.4518,-0.4509,-0.4503,-0.45,-0.4492,-0.4488,-0.4479,-0.4483,-0.448,-0.4473,-0.4469,-0.4459,-0.447,-0.4457,-0.4457,-0.4458,-0.4439,-0.4436,-0.4419,-0.4446,-0.4445,-0.4445,0,-0.4537,-0.453,-0.4512,-0.4506,-0.4502,-0.4494,-0.4485,-0.4478,-0.4471,-0.447,-0.4464,-0.4464,-0.4453,-0.446,-0.4445,-0.4452,-0.4447,-0.4444,-0.4444,-0.4442,-0.4449,-0.4435,-0.4414,-0.4411,-0.4441,-0.4442,-0.4442,0,-0.4522,-0.4508,-0.4495,-0.4492,-0.4485,-0.4479,-0.4475,-0.4469,-0.4464,-0.4457,-0.4453,-0.4444,-0.4439,-0.4432,-0.443,-0.4436,-0.4415,-0.4422,-0.4413,-0.4413,-0.4407,-0.4408,-0.4384,-0.4406,-0.4406,-0.4406,-0.4406,0,-0.4501,-0.449,-0.4489,-0.4481,-0.4469,-0.4469,-0.4456,-0.4453,-0.4448,-0.444,-0.4442,-0.4434,-0.4432,-0.4424,-0.4422,-0.441,-0.4408,-0.4406,-0.4405,-0.4405,-0.4405,-0.4401,-0.4402,-0.4405,-0.4405,-0.4405,-0.4406,0,-0.4482,-0.448,-0.4467,-0.4462,-0.446,-0.4452,-0.4447,-0.444,-0.4438,-0.4427,-0.4425,-0.4422,-0.4412,-0.441,-0.4398,-0.4397,-0.4382,-0.4383,-0.4384,-0.4384,-0.4375,-0.4376,-0.4347,-0.4344,-0.4368,-0.4368,-0.4368,0,-0.4468,-0.446,-0.4454,-0.4449,-0.4446,-0.4437,-0.4432,-0.4432,-0.4426,-0.4419,-0.4412,-0.4403,-0.4396,-0.4381,-0.4377,-0.4368,-0.4369,-0.4359,-0.4367,-0.4367,-0.4368,-0.4368,-0.4367,-0.4357,-0.4357,-0.4357,-0.4357,0,-0.4444,-0.4444,-0.4437,-0.4429,-0.4423,-0.4417,-0.4412,-0.4407,-0.4407,-0.44,-0.4391,-0.4386,-0.4374,-0.4365,-0.4357,-0.4353,-0.4354,-0.4355,-0.4352,-0.4351,-0.4352,-0.4351,-0.438,-0.4355,-0.4355,-0.4355,-0.4355,-0.4355,-0.4427,-0.4419,-0.4415,-0.4406,-0.4403,-0.4398,-0.4391,-0.4388,-0.4381,-0.4372,-0.4373,-0.4363,-0.4357,-0.4346,-0.4342,-0.4334,-0.4337,-0.4333,-0.4332,-0.4331,-0.433,-0.4354,-0.4332,-0.4332,-0.4332,-0.4332,-0.4333,0,-0.4402,-0.44,-0.4392,-0.4385,-0.4379,-0.4382,-0.4376,-0.4371,-0.4362,-0.4357,-0.435,-0.434,-0.4331,-0.4328,-0.4319,-0.4313,-0.4314,-0.4311,-0.4311,-0.431,-0.4328,-0.4331,-0.4311,-0.4311,-0.4311,-0.4311,-0.4311,-0.4311,-0.4389,-0.4377,-0.4377,-0.4363,-0.436,-0.4351,-0.4347,-0.4343,-0.4339,-0.4328,-0.4321,-0.4319,-0.4315,-0.4306,-0.4298,-0.4298,-0.4294,-0.4291,-0.429,-0.4306,-0.4309,-0.4311,-0.4313,-0.429,-0.429,-0.4273,-0.4273,-0.4273]},{"header":{"parameterUnit":"m.s-1","parameterCategory":1,"la1":30.2991,"la2":30.254,"lo1":-89.0895,"lo2":-89.0444,"dy":0.0017,"dx":0.0017,"nx":28,"ny":28,"refTime":"2024-07-19T03:00:00:Z","depth":0,"parameterNumber":3,"parameterNumberName":"V-component_of_WINDS"},"data":[0,0,0,0,0,0,0,0,0,0,0,0,0,0,0,0,0,0,0,0,0,0,0,0,0,0,0,0,0,0,0,0,0,0,0,0,0,0,0,0,0,0,0,0,0,0,0,0,0,0,0,0,0,0,0,0,0,0,4.1167,4.1167,0,4.113,4.1129,4.1129,4.1113,4.1113,4.1113,4.1113,4.1071,4.107,4.1069,0,0,0,0,0,0,0,0,0,0,0,0,0,4.1223,4.1223,4.1167,4.1167,4.1167,4.113,4.1129,4.1129,4.1113,4.1113,4.1113,4.1113,4.1072,4.107,4.1069,0,0,0,0,0,0,0,0,0,0,0,0,0,4.1194,4.1222,4.1168,4.1154,4.1153,4.113,4.1129,4.1129,4.1113,4.1113,4.1113,4.1113,4.1072,4.1071,4.1069,4.1055,0,0,4.1063,4.1063,0,0,0,0,0,0,0,0,4.1195,4.1192,4.1157,4.1155,4.1153,4.1126,4.1134,4.1104,4.1113,4.1128,4.1113,4.1114,4.1089,4.1086,4.1079,4.1053,4.1051,4.1063,4.1062,4.1061,4.1061,0,0,0,0,0,0,0,4.1198,4.1193,4.1152,4.1156,4.1154,4.115,4.1146,4.1128,4.1108,4.1127,4.1126,4.1122,4.1088,4.1081,4.1078,4.1051,4.1063,4.1062,4.1061,4.106,4.1013,4.1013,0,0,0,0,0,0,4.1202,4.1195,4.1154,4.1151,4.1175,4.1149,4.1144,4.1135,4.1109,4.1105,4.1121,4.1121,4.1084,4.108,4.1076,4.1059,4.1061,4.106,4.1059,4.1013,4.1013,4.1013,0,0,0,0,0,0,4.1203,4.1199,4.1155,4.1173,4.1167,4.1147,4.1137,4.1134,4.1126,4.1105,4.1101,4.1117,4.1083,4.1079,4.1061,4.1057,4.1059,4.1057,4.1014,4.1013,4.1013,4.1024,0,0,0,0,0,0,4.1205,4.1199,4.1194,4.1173,4.1166,4.1141,4.1137,4.1133,4.1123,4.1122,4.1099,4.1096,4.1083,4.1064,4.1059,4.1055,4.1056,4.1014,4.1013,4.1013,4.1024,4.1024,4.1025,0,0,0,0,0,4.1207,4.1198,4.1194,4.1189,4.116,4.1141,4.1137,4.1124,4.1123,4.1118,4.1104,4.1096,4.1059,4.1062,4.1057,4.1052,4.1014,4.1013,4.1013,4.1024,4.1024,4.1025,0,0,0,0,0,0,4.1218,4.1195,4.119,4.1174,4.116,4.1139,4.1131,4.1125,4.1109,4.1109,4.1092,4.1087,4.1071,4.106,4.1064,4.1038,4.1036,4.1034,4.1046,4.1046,4.1046,4.1049,4.1054,0,0,0,0,0,4.1219,4.1207,4.1187,4.1174,4.1168,4.1151,4.1142,4.1134,4.1118,4.1111,4.1096,4.108,4.1065,4.1055,4.1039,4.1023,4.1018,4.1017,4.1017,4.1018,4.1016,4.1007,4.1007,4.1012,4.1012,4.1012,0,0,4.122,4.1206,4.1198,4.1176,4.1164,4.1151,4.1146,4.1132,4.1122,4.1108,4.1091,4.108,4.1061,4.1044,4.1036,4.1034,4.1014,4.1017,4.1017,4.1016,4.1007,4.1006,4.1006,4.1011,4.1012,4.1012,0,0,4.1215,4.1203,4.1192,4.118,4.1163,4.1152,4.1149,4.1129,4.1121,4.1104,4.1094,4.1082,4.1055,4.1043,4.1033,4.1025,4.1017,4.102,4.1021,4.1013,4.1012,4.1012,4.1009,4.1008,4.1019,4.1019,4.1019,0,4.1218,4.1199,4.1186,4.1174,4.1164,4.1153,4.1141,4.113,4.1108,4.1102,4.11,4.1068,4.1054,4.1035,4.1033,4.1025,4.1022,4.1022,4.1014,4.1013,4.1012,4.101,4.1009,4.102,4.102,4.1019,4.1019,0,4.1203,4.119,4.1183,4.1164,4.1153,4.1141,4.1127,4.1118,4.111,4.1099,4.1082,4.1066,4.1047,4.1042,4.1034,4.1022,4.1021,4.1017,4.1014,4.1013,4.101,4.1009,4.102,4.102,4.102,4.102,0,0,4.1203,4.1178,4.1176,4.1167,4.1147,4.1137,4.1124,4.1107,4.11,4.1085,4.1074,4.1053,4.105,4.1038,4.1029,4.1022,4.1017,4.1018,4.1018,4.1019,4.1002,4.1005,4.1004,4.1012,4.1012,4.1011,4.1004,0,4.1195,4.1173,4.1163,4.1145,4.1133,4.1123,4.1112,4.1098,4.1088,4.1076,4.1064,4.105,4.1046,4.104,4.1032,4.1019,4.1013,4.1019,4.1001,4.1,4.1006,4.1003,4.1005,4.0999,4.1003,4.1002,4.1002,0,4.1183,4.117,4.1152,4.1135,4.1129,4.112,4.1104,4.1093,4.1077,4.107,4.1059,4.105,4.1036,4.1035,4.1016,4.102,4.1012,4.1005,4.1004,4.1001,4.1001,4.1,4.0997,4.0996,4.1,4.1,4.1001,0,4.1185,4.1163,4.1149,4.1142,4.1122,4.1115,4.1106,4.1091,4.1082,4.1068,4.1062,4.1046,4.1037,4.1025,4.1012,4.1013,4.0994,4.0992,4.0988,4.0988,4.0984,4.0984,4.0979,4.0979,4.0979,4.0979,4.0979,0,4.1177,4.1166,4.115,4.1141,4.1129,4.1117,4.1104,4.1095,4.1082,4.1071,4.1061,4.1051,4.1034,4.1022,4.1012,4.0998,4.0994,4.0987,4.0985,4.0988,4.0989,4.0982,4.0982,4.0979,4.0979,4.0979,4.0979,0,4.1177,4.1165,4.115,4.1132,4.1128,4.1119,4.1104,4.1095,4.1085,4.1072,4.1068,4.1052,4.1037,4.1023,4.1003,4.0996,4.0982,4.0979,4.0987,4.0986,4.0982,4.0983,4.0972,4.0971,4.0972,4.0972,4.0972,0,4.1173,4.1164,4.1146,4.1139,4.1131,4.1119,4.111,4.1098,4.1089,4.1071,4.1065,4.105,4.1037,4.1014,4.1,4.0985,4.0981,4.0978,4.0978,4.0982,4.0981,4.0981,4.098,4.0978,4.0978,4.0978,4.0978,0,4.1166,4.1161,4.115,4.1136,4.1126,4.1115,4.1103,4.1097,4.1082,4.1073,4.1058,4.1049,4.1029,4.1014,4.0998,4.0988,4.098,4.0979,4.0977,4.098,4.0985,4.0982,4.0988,4.0979,4.0979,4.0979,4.0979,4.0978,4.1164,4.1156,4.1143,4.113,4.112,4.111,4.1101,4.1091,4.1079,4.1062,4.1056,4.1041,4.1027,4.1004,4.0994,4.0983,4.0981,4.0978,4.0977,4.0977,4.0978,4.0988,4.0979,4.0979,4.0979,4.0979,4.0979,0,4.1157,4.1148,4.1137,4.1121,4.1111,4.1107,4.1094,4.1086,4.1073,4.1061,4.1049,4.1033,4.1018,4.1004,4.0989,4.0982,4.0979,4.0979,4.0979,4.0977,4.098,4.0983,4.0982,4.0982,4.0982,4.0982,4.0982,4.0982,4.1152,4.1139,4.1133,4.1115,4.1106,4.1093,4.1086,4.1076,4.1066,4.1049,4.1037,4.1029,4.1016,4.1,4.0987,4.0983,4.0978,4.0979,4.0974,4.0977,4.0976,4.0976,4.0979,4.0978,4.0978,4.0972,4.0972,4.0972]}]]